Flag for U.S.A. Weather past 2 weeks in Amarillo, Texas, U.S.A.

Now
57 °F

Clear.


Feels Like: 54 °F
Forecast: 48 / 88 °F
Wind: 15 mph from South

Location: Amarillo International Airport


UV Index: 7 (High)

Visibility: 10 mi


Pressure: 29.89 "Hg

Humidity: 20%

Dew point: 16 °F

Location of AmarilloLocation

Historic Weather in Amarillo

°F

Amarillo temperature yesterday

Maximum temperature yesterday: 73 °F (at 4:53 PM)
Minimum temperature yesterday: 48 °F (at 6:53 AM)
Average temperature yesterday: 62 °F

Past Weeks' High & Low Weather Summary

 TemperatureHumidityPressure
High88 °F (Apr 23, 3:53 PM)100% (Apr 21, 12:02 AM)30.34 "Hg (Apr 21, 12:02 AM)
Low26 °F (Apr 15, 4:53 AM)5% (Apr 12, 12:53 PM)29.42 "Hg (Apr 23, 6:53 PM)
Average59 °F44%29.94 "Hg
* Reported Apr 9 11:53 PM — Apr 24 11:53 PM, Amarillo, Weather by CustomWeather, © 2014

Note: Actual official high and low records may vary slightly from our data, if they occured in-between our weather recording intervals... More about our weather records

Advertising

Historic Weather Conditions — Data for Previous 24 hours

 ConditionsComfort  
Time TempWeatherWind HumidityBarometerVisibility
11:53 PM
Apr 24
57 °FClear.15 mph20%29.89 "Hg10 mi
10:53 PM58 °FClear.13 mph18%29.89 "Hg10 mi
9:53 PM57 °FClear.10 mph19%29.89 "Hg10 mi
8:53 PM63 °FSunny.7 mph15%29.88 "Hg10 mi
7:53 PM69 °FSunny.No wind11%29.86 "Hg10 mi
6:53 PM71 °FSunny.6 mph10%29.87 "Hg10 mi
5:53 PM73 °FSunny.7 mph11%29.86 "Hg10 mi
4:53 PM73 °FSunny.8 mph11%29.85 "Hg10 mi
3:53 PM71 °FSunny.12 mph13%29.88 "Hg10 mi
2:53 PM70 °FSunny.10 mph13%29.87 "Hg10 mi
1:53 PM69 °FSunny.17 mph17%29.89 "Hg10 mi
12:53 PM68 °FSunny.22 mph21%29.90 "Hg10 mi
11:53 AM63 °FSunny.20 mph28%29.91 "Hg10 mi
10:53 AM59 °FSunny.22 mph36%29.91 "Hg10 mi
9:53 AM55 °FSunny.16 mph53%29.91 "Hg10 mi
8:53 AM51 °FSunny.17 mph63%29.88 "Hg10 mi
7:53 AM49 °FClear.24 mph64%29.86 "Hg10 mi
6:53 AM48 °FPassing clouds.24 mph61%29.83 "Hg10 mi
5:53 AM50 °FOvercast.28 mph52%29.77 "Hg8 mi
4:53 AM54 °FOvercast.26 mph45%29.70 "Hg4 mi
4:00 AM57 °FOvercast.30 mph39%29.80 "Hg3 mi
2:53 AM65 °FClear.23 mph22%29.58 "Hg9 mi
1:53 AM66 °FClear.14 mph20%29.55 "Hg10 mi
Weather by CustomWeather, © 2014

See weather overview